Regional Weather Roundup
Issued by NWS Upton, NY

Current Version | Previous Version | Text Only | Print | Product List | Glossary On
Versions: 1 2 3 4 5 6 7 8 9 10 11 12 13 14 15 16 17 18 19 20 21 22 23 24 25 26 27 28 29 30 31 32 33 34 35 36 37 38 39 40 41 42 43 44 45 46 47 48 49 50
000
ASUS41 KOKX 260907
RWROKX

REGIONAL WEATHER ROUNDUP
NATIONAL WEATHER SERVICE NEW YORK NY
500 AM EDT SUN APR 26 2015

NOTE: "FAIR" INDICATES FEW OR NO CLOUDS BELOW 12,000 FEET WITH NO
SIGNIFICANT WEATHER AND/OR OBSTRUCTIONS TO VISIBILITY.

NYZ071-072-176-178-NJZ106-104-261000-
NEW YORK CITY METRO AREA


CITY           SKY/WX    TMP DP  RH WIND       PRES   REMARKS
CENTRAL PARK   CLEAR     47  27  45 NE7       29.70R
LAGUARDIA APRT CLEAR     46  30  53 NE8       29.67S
KENNEDY INTL   PTCLDY    45  28  51 NE10      29.68R
NEWARK/LIBERTY PTCLDY    45  29  53 N13       29.68R
BRNX BOT. GARD   N/A     43  28  56 N2        29.69S
TETERBORO      CLEAR     44  28  53 N5        29.68R
$$

NYZ177-179-078>081-261000-
LONG ISLAND NEW YORK

CITY           SKY/WX    TMP DP  RH WIND       PRES   REMARKS
FARMINGDALE    CLEAR     43  30  60 NE7       29.67S
ISLIP          CLEAR     40  31  70 NE6       29.66R
SHIRLEY        CLEAR     37  30  75 CALM      29.68S
WESTHAMPTON    CLEAR     38  32  79 NE7       29.68F WCI  33
MONTAUK POINT    N/A     38  34  85 CALM      29.68S
$$

NYZ052-065-067-261000-
HUDSON VALLEY

CITY           SKY/WX    TMP DP  RH WIND       PRES   REMARKS
WHITE PLAINS   PTCLDY    42  26  53 N5        29.67R
NEWBURGH       CLEAR     34  28  80 CALM      29.70S
MONTGOMERY     CLEAR     29  26  89 CALM      29.69R
POUGHKEEPSIE   CLEAR     32  27  81 CALM      29.70R
ALBANY         CLOUDY    42  29  59 W3        29.71S
$$

NJZ001-105-106-008-010-013-015-019>022-104-261000-
NEW JERSEY

CITY           SKY/WX    TMP DP  RH WIND       PRES   REMARKS
NEWARK/LIBERTY PTCLDY    45  29  53 N13       29.68R
TETERBORO      CLEAR     44  28  53 N5        29.68R
CALDWELL       CLEAR     39  28  64 CALM      29.69S
MORRISTOWN     CLEAR     37  34  87 CALM      29.69S
SOMERVILLE     CLEAR     34  30  85 N5        29.67R WCI  30
SUSSEX         CLEAR     31  27  85 CALM      29.71R
ANDOVER          N/A     35  30  82 CALM      29.69R
TRENTON        CLEAR     42  27  55 N6        29.67R
MILLVILLE      CLOUDY    45  39  79 W5        29.65F
ATLANTIC CITY  MOCLDY    44  37  76 NW6       29.64F
WRIGHTSTOWN    MOCLDY    37  32  81 NE2       29.63S
TOMS RIVER     PTCLDY    34  30  86 CALM      29.66R
BELMAR         CLEAR     43  30  61 N7        29.65S
$$

PAZ047>061-062-071-261000-
EASTERN PENNSYLVANIA

CITY           SKY/WX    TMP DP  RH WIND       PRES   REMARKS
PHILADELPHIA   MOCLDY    48  29  47 N7        29.67R
ALLENTOWN      PTCLDY    37  27  67 CALM      29.69S
SCRANTON       CLEAR     33  25  72 CALM      29.70R
$$

CTZ002-004>006-009-010-012-RIZ004-006-007-MAZ004-011-015-261000-
SOUTHERN NEW ENGLAND
 IN CT

CITY           SKY/WX    TMP DP  RH WIND       PRES   REMARKS
BRADLEY INTL   PTCLDY    36  28  73 CALM      29.67F
HARTFORD       CLEAR     36  31  82 SE7       29.69S WCI  30
DANBURY        CLEAR     30  25  81 CALM      29.69S
WTRBRY/OXFORD  CLEAR     36  23  60 CALM      29.68S
BRIDGEPORT     CLEAR     42  31  64 N6        29.68S
MERIDEN        CLEAR     35  28  75 CALM      29.69S
NEW HAVEN      CLEAR     35  28  75 CALM      29.68S
CHESTER        FAIR      37  30  75 N3        29.68S
GROTON         CLEAR     37  29  72 NE3       29.67F
WILLIMANTIC    MOCLDY    33  29  85 CALM      29.68F

 IN RI

CITY           SKY/WX    TMP DP  RH WIND       PRES   REMARKS
PROVIDENCE     CLOUDY    42  30  62 W3        29.67F
BLOCK ISLAND   CLEAR     39  36  87 CALM      29.66S
WESTERLY       CLEAR     34  30  85 CALM      29.68S

 IN MA

CITY           SKY/WX    TMP DP  RH WIND       PRES   REMARKS
BOSTON         MOCLDY    44  30  57 NW6       29.67F
WORCESTER      CLOUDY    42  28  57 NW6       29.65S
WESTFIELD      CLOUDY    37  29  72 CALM      29.68S
PROVINCETOWN   MOCLDY   N/A N/A N/A CALM      29.66S
NANTUCKET      CLEAR     41  33  73 N9        29.65S
$$

ANZ330-335-338-340-345-350-353-355-261000-
COASTAL MARINE OBSERVATIONS


STATION/POSITION TIME  SKY/WX   TEMP    WIND        PRES    VSBY  WAVE
                                AIR SEA DIR/SP/G                  HT/PER
                 (UTC)          (F)     (DEG/KT/KT) (MB)    (MI)  (FT/S)
NY HARB ENTRANCE 0850            46 45   30/ 14/ 16 1003.6          1/ 5
4S FIRE IS       0803               44                N/A           2/ 5
20S FIRE ISLAND  0850            44 43   20/  6/  8 1004.1          2/ 5
23SW MTP         NOT AVBL
HUDSON CANYON    NOT AVBL
EXECUTION ROCKS  NOT AVBL
WESTERN LI SOUND NOT AVBL
CENTRAL LI SOUND NOT AVBL
EASTERN LI SOUND 0800            44      30/  6/  6   N/A
ROBBINS REEF     0800            49      10/  9/ 12 1003.4
$$


>>>>>>>>>>>>>>>>>>>>>>>>>>>> KEY <<<<<<<<<<<<<<<<<<<<<<<<<<<
>                                                          <
>     SKY/WX - SKY CONDITION/PRESENT WEATHER               <
>     TMP    - TEMPERATURE IN FAHRENHEIT                   <
>     DP     - DEWPOINT IN FAHRENHEIT                      <
>     RH     - RELATIVE HUMIDITY IN PERCENT                <
>     WIND   - DIRECTION AND SPEED IN MPH                  <
>     PRES   - MEAN SEA LEVEL PRESSURE IN INCHES OF HG     <
>     WCI    - WIND CHILL INDEX                            <
>     VSB    - VISIBILITY IN MILES                         <
>     HX     - HEAT INDEX                                  <
>     TC     - TEMPERATURE IN CELSIUS                      <
>     VRB    - VARIABLE WIND DIRECTION                     <
>                                                          <
>>>>>>>>>>>>>>>>>>>>>>>>>>>> KEY <<<<<<<<<<<<<<<<<<<<<<<<<<<





USA.gov is the U.S. government's official web portal to all federal, state and local government web resources and services.